Location: Newark
(25.6108°S, 54.5803°W)
Time: 08:21:07
(UTC+00:00)

Tiros 1 - Pass Details

Date: 04 November 2020
Orbit: 630 x 664 km, 48.4° (Epoch: 29 November)

Event Time Altitude Azimuth Distance (km) Brightness Sun altitude
Rises 22:37:46 0° 219° (SW) 3,016 11.8 -9.5°
Reaches altitude 10° 22:40:15 10° 212° (SSW) 2,099 10.7 -10.0°
Maximum altitude 22:44:53 44° 140° (SE) 925 7.8 -11.0°
Enters shadow 22:48:24 16° 72° (ENE) 1,701 8.6 -11.7°
Drops below altitude 10° 22:49:27 10° 67° (ENE) 2,073 - -11.9°
Sets 22:51:53 0° 60° (ENE) 2,976 - -12.4°
